Temperature
18 19 19 19 20 19 18 18 18 19 19 19 18 18 18 18 19 19 19 19 19 19 19 19 19 19 18 18 18 17 17 17 17 17 17 17 17 16 16 16 16 16 16 16
18 19 19 20 20 20 19 19 19 20 19 18 18 18 18 18 18 18 18 19 19 19 19 19 19 18 18 18 18 18 17 17 17 17 17 17 16 16 16 16 16 16 16 16
17 18 19 19 19 20 20 19 19 19 19 17 17 17 17 17 18 18 18 18 18 18 18 18 18 18 18 18 18 17 17 17 17 16 16 16 16 16 16 16 16 15 15 15
15 17 18 18 19 19 19 19 18 18 18 17 16 16 16 17 18 17 18 18 18 18 18 18 18 18 17 17 17 17 17 16 16 16 16 16 15 15 15 15 15 15 14 14
13 15 17 18 18 18 18 18 18 17 16 15 15 15 15 16 17 17 17 17 17 17 17 17 17 17 17 16 16 16 16 16 15 15 15 15 15 15 14 14 14 14 14 13
13 15 16 17 18 17 18 18 17 16 15 15 16 16 14 14 16 16 16 17 16 16 16 16 16 16 16 16 15 15 15 14 14 14 14 14 14 14 13 13 13 13 12 12
13 14 15 16 16 17 18 18 16 16 15 15 15 15 14 14 15 15 15 15 15 16 15 15 15 15 15 15 14 14 14 14 13 13 13 13 13 13 12 12 12 12 11 11
13 14 15 16 16 16 16 16 16 15 15 15 14 14 13 14 14 14 14 14 15 15 14 14 14 14 14 13 13 13 13 13 12 12 12 12 12 12 11 11 11 11 11 10
13 13 14 14 14 15 15 15 15 15 15 14 13 12 12 13 13 13 13 13 13 14 13 13 13 13 13 12 12 12 12 12 12 12 11 11 11 11 11 10 10 10 9 9
12 13 13 14 14 15 15 15 15 15 15 14 13 12 12 12 12 12 12 12 12 13 12 12 12 12 12 11 11 11 11 11 11 11 11 10 10 10 10 9 9 9 9 8
12 13 13 14 14 14 14 14 14 14 14 14 13 12 12 12 12 12 12 12 12 12 11 11 11 11 11 11 11 11 11 10 10 10 10 10 10 9 9 9 8 8 8 7
13 13 12 13 14 14 14 14 14 13 13 13 13 12 11 11 11 11 11 11 11 11 11 11 11 11 10 10 10 11 10 10 10 9 9 9 9 8 8 8 7 7 7 6
13 13 13 13 13 13 13 13 13 13 12 12 11 11 11 11 11 11 11 11 11 11 11 10 10 10 10 10 10 10 10 9 9 9 9 8 8 8 7 7 7 6 6 5
13 13 12 12 12 13 13 12 12 12 12 11 11 11 11 11 11 11 11 11 11 10 10 10 10 10 10 9 9 9 9 9 8 8 8 8 7 7 6 6 6 5 5 5
13 13 12 12 12 12 12 12 11 11 11 11 11 11 11 11 11 10 10 10 10 10 10 10 10 9 9 9 9 8 8 8 8 7 7 7 6 6 6 5 5 4 4 4
12 12 12 12 11 11 11 11 11 10 11 11 11 11 11 11 11 10 10 10 10 10 10 9 9 9 8 8 8 8 8 7 7 7 6 6 6 5 5 4 4 4 3 3
12 11 11 11 11 11 11 11 11 11 11 11 11 11 11 11 10 10 10 10 10 9 9 9 9 8 8 8 8 7 7 6 6 6 5 5 5 4 4 3 3 3 2 2
12 12 12 12 12 11 11 11 11 11 11 11 11 11 11 11 10 10 10 9 9 9 9 8 8 8 7 7 7 6 6 6 5 5 5 4 4 4 3 3 2 2 2 2
12 12 12 12 12 12 12 11 11 11 11 11 11 11 10 10 10 10 9 9 9 9 8 8 7 7 7 6 6 6 5 5 5 4 4 4 3 3 2 2 2 2 1 1
12 12 12 12 12 12 12 11 11 11 11 11 11 10 10 10 9 9 9 9 8 8 7 7 7 6 6 6 5 5 5 4 4 4 3 3 2 2 2 2 1 1 1 0
12 12 12 11 11 11 11 11 11 11 10 10 10 10 10 9 9 9 8 8 8 7 7 6 6 6 6 5 5 4 4 4 3 3 2 2 2 1 1 1 1 0 0 -0
11 11 11 11 11 11 11 11 11 10 10 10 10 10 9 9 8 8 8 8 7 7 6 6 6 5 5 4 4 4 3 3 2 2 2 1 1 1 1 0 0 -0 -0 -0
11 11 11 11 11 11 10 10 10 10 10 10 9 9 9 9 8 8 7 7 6 6 6 5 5 4 4 4 3 3 3 2 2 1 1 1 1 0 0 -0 -0 -0 -1 -1
11 11 11 10 10 10 10 10 10 9 9 9 9 9 8 8 7 7 7 6 6 5 5 5 4 4 3 3 3 2 2 2 1 1 1 0 0 0 -0 -0 -1 -1 -1 -1
10 10 10 10 10 10 10 9 9 9 9 8 8 8 7 7 7 6 6 6 5 5 4 4 4 3 3 3 2 2 2 1 1 1 1 0 0 -0 -0 -1 -1 -1 -1 -1
10 10 10 10 9 9 9 9 9 8 8 8 7 7 7 6 6 6 5 5 5 4 4 3 3 3 2 2 2 2 1 1 1 1 1 0 0 -0 -0 -1 -1 -1 -1 -1
9 9 9 9 9 9 8 8 8 8 7 7 7 6 6 6 5 5 5 4 4 4 3 3 3 2 2 2 2 2 1 1 1 1 0 0 -0 -0 -0 -1 -1 -1 -1 -1
Wind_Speed
6 7 5 6 7 7 8 9 9 9 9 10 7 8 7 7 7 7 7 7 7 6 5 5 5 6 6 7 7 8 9 8 7 6 5 5 4 4 4 4 4 4 4 4
4 6 6 6 8 9 9 7 7 5 8 7 3 6 6 8 9 8 7 7 7 7 7 6 6 6 6 6 6 7 7 6 5 5 5 4 3 3 3 3 2 3 3 2
5 5 2 7 9 9 7 7 8 9 9 4 5 7 7 7 8 9 8 7 7 7 6 6 6 6 7 6 6 7 6 6 6 6 5 4 4 4 3 3 3 3 3 3
3 1 8 9 4 6 6 6 7 6 4 6 7 6 6 5 7 8 8 8 7 6 6 5 6 6 7 8 8 8 8 7 6 6 6 5 5 4 4 3 4 3 4 4
4 5 7 6 3 4 5 6 5 7 6 7 11 8 5 5 7 8 8 8 7 6 7 7 8 9 11 11 10 10 9 8 7 7 7 7 6 5 5 5 6 6 5 6
4 5 7 8 3 1 3 5 4 7 9 11 10 7 5 6 10 10 10 10 10 10 10 10 9 11 13 12 11 10 9 8 8 8 8 8 7 6 6 7 7 8 8 8
6 6 7 5 3 1 5 7 3 6 8 9 4 5 11 12 12 11 11 11 12 12 10 9 9 12 14 12 10 8 9 10 10 9 9 8 8 7 7 8 8 8 8 7
4 5 8 3 1 4 5 2 3 5 6 7 11 16 16 14 14 14 13 12 13 13 11 9 9 13 14 11 8 9 10 11 10 8 8 8 9 8 7 8 8 7 7 6
6 7 5 3 5 5 3 2 2 5 9 14 16 16 16 14 14 14 13 12 11 13 13 11 9 11 13 8 8 10 12 11 9 9 9 8 8 8 7 6 6 5 4 4
5 7 5 5 4 3 2 2 4 8 12 15 17 17 16 15 14 13 13 12 12 13 14 11 10 10 10 8 9 11 11 9 8 8 8 8 7 6 6 5 5 4 4 3
5 5 5 4 3 0 3 7 9 11 12 15 19 17 16 15 14 13 12 11 11 12 13 11 10 10 8 8 10 11 9 8 7 7 7 7 7 6 5 4 3 4 2 2
4 3 3 2 2 4 7 9 11 14 14 14 17 18 16 14 12 13 12 11 12 12 12 10 10 10 8 6 8 10 8 7 6 5 6 6 7 7 11 8 9 8 6 4
2 0 2 2 5 6 9 11 12 14 17 17 15 16 16 14 12 12 12 12 11 11 11 10 10 9 7 6 8 9 8 6 5 5 5 5 5 5 5 6 9 10 9 8
0 2 4 4 6 9 13 15 16 17 16 16 15 16 15 14 12 12 11 10 11 11 10 10 10 8 5 6 8 8 7 7 6 4 4 4 4 4 4 4 4 4 6 8
6 6 7 9 11 12 14 16 19 17 17 15 14 15 15 14 12 11 10 11 11 11 10 9 9 6 5 7 8 7 6 5 5 5 5 5 4 4 4 4 4 3 4 5
9 11 12 13 13 13 14 16 18 16 15 15 14 13 13 13 12 11 9 10 10 9 8 8 7 5 5 7 7 6 5 8 7 5 5 5 4 4 4 4 3 3 4 4
9 8 11 12 12 12 12 13 14 14 14 14 14 14 13 13 12 11 10 9 10 9 7 7 6 5 6 6 6 5 5 6 7 6 4 4 4 4 3 3 3 3 3 4
8 9 9 11 12 13 12 12 12 13 13 13 13 13 12 12 11 10 9 10 10 9 7 5 6 6 6 6 5 5 5 4 4 4 4 3 3 3 3 3 3 3 3 4
12 12 12 12 12 12 12 11 11 11 11 11 12 11 10 10 9 9 8 9 9 7 4 4 7 7 6 6 6 4 5 5 5 4 4 4 4 3 3 3 3 3 3 3
12 12 13 13 12 12 12 11 11 11 10 11 12 11 10 9 9 9 8 7 4 3 4 5 6 6 5 5 6 5 5 5 5 4 4 4 3 3 3 3 3 3 3 3
12 13 13 13 12 11 10 10 11 10 9 10 11 10 9 8 7 7 8 6 2 3 5 6 5 4 4 5 6 5 5 5 5 4 3 3 3 3 3 3 3 3 3 4
10 11 11 11 11 9 7 8 9 10 9 9 9 9 9 8 7 6 5 4 3 5 5 4 4 5 6 7 5 5 5 5 4 3 3 3 3 3 3 3 3 3 4 4
8 9 9 9 9 8 7 7 7 8 8 8 8 8 7 6 5 5 4 2 4 6 5 4 6 9 9 6 5 5 5 5 4 3 3 2 2 2 2 3 3 3 4 4
8 8 8 8 8 9 8 6 6 6 7 7 6 7 7 6 4 3 4 7 7 8 5 6 9 10 9 5 5 5 4 4 3 3 3 2 2 2 2 2 3 3 3 5
7 8 8 9 8 6 6 7 8 7 7 6 7 6 4 4 4 4 5 6 7 8 6 6 8 9 6 5 4 4 3 3 3 2 2 2 2 2 2 2 2 3 3 4
6 6 5 5 5 5 5 5 5 4 5 6 5 4 5 5 6 6 5 6 7 7 5 4 5 5 4 4 4 4 3 3 3 2 2 1 1 1 1 2 2 3 3 4
7 6 5 5 4 4 4 5 5 4 4 5 5 4 5 5 5 6 6 5 5 5 4 3 3 4 3 3 3 3 2 2 2 1 1 1 0 0 1 2 2 3 4 5
Wind_Direction
238 248 235 234 240 203 198 196 194 224 223 245 224 196 183 165 152 149 152 155 162 162 157 152 153 159 166 169 169 169 169 175 182 177 172 174 177 184 188 193 205 203 203 210
269 249 238 246 244 224 224 214 216 229 246 246 188 149 159 161 157 157 157 158 157 152 150 156 160 160 156 156 158 156 160 167 159 151 150 154 156 156 153 152 152 149 167 169
256 272 276 248 224 206 207 204 186 208 229 169 163 167 166 162 157 155 151 144 144 145 147 150 152 151 151 141 129 132 137 135 137 137 133 135 136 127 124 117 108 105 102 105
228 253 233 239 226 198 203 222 203 210 204 172 156 123 96 116 140 138 135 130 128 122 118 114 114 119 118 115 117 116 110 108 114 121 121 118 114 108 100 99 98 93 81 84
181 221 265 281 241 182 184 242 210 188 165 139 125 100 72 74 108 119 120 115 110 107 105 102 107 113 109 104 103 103 102 102 102 106 105 99 97 94 93 92 84 78 74 72
179 204 233 243 240 217 126 258 214 168 161 156 145 149 164 121 110 107 105 104 103 99 95 95 99 106 103 101 98 98 99 96 92 94 98 96 93 88 84 88 85 79 70 64
208 227 257 262 294 115 175 235 192 169 162 159 163 145 129 121 108 104 101 100 99 96 91 89 96 100 97 93 90 92 92 88 84 85 89 91 86 82 85 85 81 76 71 59
193 210 248 295 328 203 232 291 156 152 141 127 118 118 123 121 115 110 105 100 98 96 87 76 85 97 94 88 86 87 86 83 79 78 84 88 87 82 82 87 83 75 72 58
207 225 256 271 250 272 266 242 176 142 132 132 128 129 126 122 116 111 108 102 99 101 92 77 73 92 98 94 93 90 84 79 77 75 73 76 85 87 83 81 86 83 78 67
262 266 276 287 284 285 249 202 143 133 135 135 131 131 127 122 116 113 110 107 106 103 99 90 81 83 92 95 92 90 86 80 77 79 75 68 69 75 84 85 90 89 82 70
254 280 312 315 318 55 101 112 117 120 126 130 129 127 125 121 118 115 110 106 104 104 101 97 92 86 86 91 96 93 90 89 85 83 87 79 70 61 72 69 98 111 104 97
239 245 232 292 9 100 113 117 120 119 117 118 123 124 120 118 117 115 112 107 105 102 100 98 94 87 80 84 97 100 94 87 86 86 85 89 88 72 51 61 64 71 78 77
242 85 109 49 65 84 103 110 113 115 119 117 115 119 118 115 112 112 112 110 109 107 104 101 95 86 79 84 90 94 99 97 91 92 95 96 94 94 77 47 49 51 48 47
131 94 80 74 89 95 103 105 104 102 103 109 113 113 112 111 111 111 111 110 109 106 103 100 94 83 75 89 92 91 91 91 92 92 95 97 96 92 90 82 55 30 25 29
51 82 99 98 95 97 103 106 104 104 106 107 110 114 116 116 115 113 112 110 106 101 99 98 92 78 71 88 93 92 92 91 90 89 88 89 88 85 79 73 60 37 20 16
82 88 95 96 98 103 107 108 109 111 113 113 112 112 111 111 109 106 106 110 109 106 102 98 91 80 84 93 94 88 88 100 99 94 88 84 80 80 75 67 55 40 27 11
102 100 103 103 100 99 100 106 112 116 115 115 115 114 111 108 103 98 96 96 98 96 95 97 95 89 89 95 98 97 93 95 97 93 90 88 85 81 76 68 52 39 22 7
99 103 107 108 109 106 101 102 106 110 113 115 115 113 113 113 114 112 111 106 97 86 76 85 94 89 85 91 98 101 102 102 99 100 94 85 80 75 69 59 48 35 15 8
97 99 97 96 102 105 104 103 102 103 108 112 112 110 109 111 115 116 114 108 105 99 80 82 95 90 86 92 101 97 101 98 88 82 82 81 76 68 62 54 41 23 11 8
93 96 96 94 95 102 104 104 103 102 105 109 110 108 107 110 114 113 106 96 92 113 119 106 99 93 90 95 100 97 99 98 94 87 81 78 71 59 48 39 32 22 16 11
94 95 95 96 94 94 101 107 108 106 106 112 117 120 119 115 113 114 112 104 71 92 106 107 102 100 94 98 97 96 97 95 92 89 87 81 69 55 44 37 31 26 20 9
96 99 99 98 97 90 86 96 106 109 107 108 113 117 117 113 108 98 90 112 119 111 106 103 104 107 106 99 94 94 91 88 86 84 81 77 71 59 47 40 33 24 16 8
94 98 98 99 101 96 85 88 100 108 111 115 122 126 124 123 124 124 116 111 116 113 109 108 113 111 105 97 99 99 95 92 90 87 81 74 68 64 52 37 29 22 14 6
95 95 97 98 97 93 86 79 84 92 99 100 105 116 120 115 94 87 119 125 121 113 107 113 113 110 105 100 100 98 95 93 92 88 83 77 69 60 50 39 27 17 7 359
92 95 99 101 99 100 101 95 86 84 88 88 86 87 91 108 122 123 116 117 116 110 107 112 114 111 106 107 105 102 99 99 101 99 89 83 73 64 50 31 12 358 351 346
85 90 90 95 107 113 111 106 102 98 99 96 85 80 86 92 104 107 108 112 112 108 105 104 107 107 109 109 108 108 106 103 102 97 92 89 81 62 24 1 352 346 340 336
79 82 85 81 75 89 101 106 111 111 115 119 111 99 99 102 105 109 110 111 111 107 105 107 112 117 120 120 118 115 113 112 110 106 102 92 62 347 332 329 325 325 328 330
Height
1468 1464 1464 1464 1463 1465 1469 1470 1476 1469 1467 1456 1452 1453 1455 1458 1461 1464 1467 1470 1473 1476 1480 1483 1487 1490 1494 1498 1501 1505 1508 1512 1515 1518 1521 1524 1526 1528 1530 1532 1533 1535 1536 1537
1467 1460 1460 1460 1457 1457 1459 1460 1462 1460 1458 1447 1448 1451 1454 1456 1459 1462 1466 1468 1472 1475 1478 1481 1485 1488 1492 1496 1500 1503 1507 1510 1513 1516 1519 1521 1523 1526 1527 1528 1530 1531 1531 1532
1474 1463 1460 1463 1452 1451 1451 1449 1452 1456 1449 1446 1448 1449 1451 1455 1457 1461 1464 1468 1471 1474 1477 1480 1484 1487 1490 1494 1498 1501 1504 1508 1511 1514 1516 1519 1521 1522 1524 1525 1526 1527 1527 1528
1475 1469 1474 1453 1440 1440 1442 1442 1442 1442 1442 1443 1445 1449 1452 1454 1457 1460 1463 1467 1470 1474 1477 1480 1483 1487 1490 1493 1497 1500 1502 1506 1509 1511 1514 1516 1518 1519 1521 1522 1523 1523 1523 1524
1477 1474 1463 1449 1440 1439 1442 1442 1438 1439 1440 1443 1446 1449 1454 1455 1458 1460 1463 1467 1470 1474 1477 1480 1483 1486 1489 1492 1495 1498 1501 1504 1507 1510 1512 1514 1516 1517 1518 1519 1519 1520 1520 1521
1473 1471 1468 1449 1438 1436 1438 1443 1435 1435 1438 1441 1444 1451 1454 1456 1458 1462 1464 1467 1471 1475 1478 1480 1483 1486 1489 1492 1495 1498 1501 1504 1507 1509 1512 1513 1514 1515 1516 1517 1517 1518 1518 1519
1468 1467 1455 1441 1437 1437 1447 1441 1433 1434 1436 1439 1441 1445 1451 1454 1458 1462 1466 1469 1472 1476 1479 1482 1485 1488 1490 1493 1497 1500 1503 1505 1507 1510 1512 1513 1514 1515 1516 1516 1517 1518 1518 1518
1465 1465 1457 1438 1437 1439 1436 1432 1431 1433 1435 1439 1441 1445 1450 1455 1458 1463 1468 1472 1475 1478 1481 1485 1489 1491 1493 1496 1499 1503 1505 1507 1509 1511 1512 1514 1515 1516 1516 1517 1517 1517 1518 1518
1455 1451 1441 1437 1436 1434 1433 1431 1431 1432 1435 1439 1442 1447 1451 1456 1459 1465 1470 1474 1478 1481 1484 1489 1493 1495 1496 1500 1503 1505 1507 1509 1511 1513 1514 1515 1516 1516 1516 1517 1517 1517 1517 1517
1448 1440 1437 1435 1433 1432 1431 1431 1431 1433 1436 1439 1443 1449 1454 1458 1463 1468 1473 1477 1482 1485 1487 1492 1496 1499 1501 1504 1506 1508 1509 1511 1513 1514 1515 1516 1517 1517 1517 1517 1517 1517 1517 1516
1443 1438 1435 1432 1432 1431 1430 1431 1433 1435 1438 1441 1445 1452 1457 1461 1467 1472 1477 1481 1485 1488 1491 1496 1500 1502 1505 1507 1510 1511 1512 1514 1515 1516 1517 1517 1518 1518 1518 1518 1518 1517 1516 1515
1440 1436 1436 1434 1432 1432 1432 1433 1435 1438 1442 1446 1449 1454 1460 1466 1471 1476 1481 1485 1489 1493 1496 1500 1503 1505 1508 1511 1513 1513 1514 1515 1517 1517 1518 1518 1518 1518 1518 1518 1517 1516 1515 1514
1435 1434 1433 1433 1433 1433 1434 1436 1439 1441 1444 1449 1455 1460 1465 1471 1477 1481 1486 1490 1493 1497 1500 1504 1506 1509 1511 1513 1515 1515 1516 1517 1517 1518 1518 1518 1518 1518 1517 1517 1517 1515 1514 1513
1434 1434 1434 1434 1435 1436 1438 1440 1443 1447 1451 1456 1461 1466 1471 1477 1482 1487 1491 1495 1499 1502 1505 1507 1509 1511 1513 1515 1516 1516 1517 1517 1518 1518 1518 1518 1518 1517 1517 1516 1515 1514 1513 1511
1435 1435 1436 1438 1439 1441 1443 1446 1448 1453 1458 1464 1468 1473 1477 1482 1487 1492 1496 1500 1503 1505 1508 1510 1512 1514 1515 1516 1517 1517 1517 1517 1517 1518 1518 1517 1517 1516 1516 1515 1514 1513 1512 1510
1440 1440 1441 1443 1445 1447 1450 1452 1455 1460 1465 1470 1474 1479 1484 1488 1492 1496 1500 1503 1506 1508 1510 1512 1513 1515 1516 1517 1517 1517 1517 1517 1517 1517 1517 1517 1516 1515 1515 1514 1513 1511 1510 1509
1444 1446 1447 1449 1451 1454 1456 1459 1462 1466 1471 1476 1480 1485 1489 1493 1496 1500 1503 1506 1508 1510 1512 1514 1515 1516 1517 1517 1517 1517 1517 1517 1517 1517 1517 1516 1515 1514 1513 1513 1512 1510 1509 1508
1449 1451 1453 1454 1457 1460 1463 1467 1470 1474 1478 1482 1486 1490 1493 1496 1500 1503 1506 1508 1510 1512 1514 1515 1516 1517 1517 1517 1517 1517 1517 1517 1517 1516 1516 1515 1514 1514 1513 1512 1511 1510 1508 1507
1454 1456 1459 1461 1464 1466 1470 1474 1477 1480 1484 1488 1491 1494 1497 1500 1503 1506 1508 1510 1512 1513 1514 1515 1516 1517 1517 1517 1517 1517 1517 1516 1516 1515 1515 1514 1514 1513 1512 1511 1510 1509 1507 1505
1460 1462 1465 1468 1471 1473 1476 1479 1483 1486 1489 1492 1494 1497 1500 1503 1506 1508 1510 1511 1513 1514 1515 1516 1516 1517 1517 1517 1516 1516 1516 1516 1515 1515 1515 1514 1514 1513 1512 1511 1509 1508 1506 1504
1465 1468 1471 1473 1476 1479 1482 1484 1487 1489 1493 1495 1498 1500 1503 1505 1507 1509 1510 1512 1513 1514 1515 1516 1516 1516 1516 1516 1516 1516 1516 1515 1515 1515 1514 1514 1513 1512 1511 1510 1509 1507 1505 1503
1471 1473 1476 1479 1481 1484 1487 1489 1491 1493 1496 1498 1501 1503 1505 1507 1508 1510 1511 1513 1514 1514 1515 1516 1516 1516 1516 1516 1516 1516 1516 1515 1515 1515 1514 1514 1513 1512 1511 1510 1508 1506 1504 1502
1476 1479 1481 1484 1486 1488 1490 1493 1495 1497 1499 1501 1503 1504 1506 1508 1509 1510 1512 1513 1514 1514 1515 1515 1516 1516 1516 1516 1516 1516 1516 1516 1515 1515 1514 1514 1513 1512 1511 1509 1507 1505 1503 1501
1481 1483 1486 1488 1490 1492 1494 1496 1498 1499 1501 1503 1504 1506 1507 1508 1509 1511 1512 1513 1514 1514 1515 1515 1515 1516 1516 1516 1516 1516 1516 1516 1516 1515 1515 1514 1513 1511 1510 1508 1507 1504 1502 1499
1485 1487 1489 1491 1493 1495 1496 1498 1500 1501 1503 1504 1506 1507 1508 1509 1510 1511 1512 1513 1514 1514 1515 1515 1516 1516 1516 1517 1517 1517 1517 1517 1516 1515 1514 1513 1512 1511 1509 1508 1506 1503 1501 1498
1489 1490 1492 1494 1495 1497 1498 1500 1501 1502 1504 1505 1506 1507 1509 1509 1510 1511 1512 1513 1514 1515 1516 1516 1517 1517 1517 1518 1518 1518 1517 1517 1516 1515 1514 1513 1512 1510 1509 1507 1505 1502 1500 1497
1491 1493 1494 1496 1497 1499 1500 1501 1502 1503 1504 1506 1506 1508 1509 1509 1510 1511 1512 1513 1514 1515 1516 1517 1518 1518 1519 1519 1519 1519 1518 1518 1517 1516 1515 1513 1512 1510 1508 1506 1504 1502 1499 1496